This demonstration page uses our WeatherBlox Daily Observations layout. Learn more.

Left ArrowRight Arrow

Hourly Observations for October 17, 2016

Temp ( °F °C ) Dew Point ( °F °C ) Humidity (%) Winds ( mph kmh ) Pressure ( in mb ) Visibility ( mi km ) Precip ( " mm )
12:17 am 00:17 Clear 66 19 61 16 83 83 S 5 7 29.97 1015 10 16.0934 N/A
12:37 am 00:37 Clear 64 18 61 16 88 88 S 3 6 29.97 1015 10 16.0934 N/A
12:56 am 00:56 Clear 64 18 59 15 83 83 S 3 6 29.94 1014 10 16.0934 N/A
1:17 am 01:17 Clear 64 18 59 15 83 83 S 5 7 29.94 1014 10 16.0934 N/A
1:37 am 01:37 Clear 64 18 59 15 83 83 S 6 9 29.94 1014 10 16.0934 N/A
1:56 am 01:56 Clear 64 18 59 15 83 83 S 6 9 29.94 1014 10 16.0934 N/A
2:17 am 02:17 Clear 64 18 59 15 83 83 S 6 9 29.94 1014 10 16.0934 N/A
2:37 am 02:37 Clear 64 18 59 15 83 83 S 6 9 29.94 1014 10 16.0934 N/A
2:56 am 02:56 Clear 64 18 59 15 83 83 S 7 11 29.94 1014 10 16.0934 N/A
3:17 am 03:17 Clear 64 18 59 15 83 83 S 7 11 29.94 1014 10 16.0934 N/A
3:36 am 03:36 Clear 64 18 59 15 83 83 S 6 9 29.94 1014 10 16.0934 N/A
3:56 am 03:56 Clear 64 18 59 15 83 83 S 6 9 29.94 1014 10 16.0934 N/A
4:17 am 04:17 Clear 63 17 59 15 88 88 S 5 7 29.94 1014 10 16.0934 N/A
4:36 am 04:36 Clear 63 17 59 15 88 88 S 6 9 29.94 1014 10 16.0934 N/A
4:56 am 04:56 Clear 63 17 59 15 88 88 S 6 9 29.94 1014 10 16.0934 N/A
5:17 am 05:17 Partly Cloudy 63 17 59 15 88 88 S 6 9 29.91 1013 10 16.0934 N/A
5:36 am 05:36 Clear 63 17 59 15 88 88 S 5 7 29.91 1013 10 16.0934 N/A
5:56 am 05:56 Clear 63 17 59 15 88 88 S 6 9 29.91 1013 10 16.0934 N/A
6:17 am 06:17 Mostly Cloudy 63 17 59 15 88 88 S 6 9 29.91 1013 10 16.0934 N/A
6:36 am 06:36 Mostly Cloudy 63 17 59 15 88 88 S 6 9 29.91 1013 10 16.0934 N/A
6:56 am 06:56 Mostly Cloudy 63 17 59 15 88 88 S 6 9 29.91 1013 10 16.0934 N/A
7:17 am 07:17 Mostly Cloudy 63 17 59 15 88 88 S 5 7 29.91 1013 10 16.0934 N/A
7:36 am 07:36 Mostly Cloudy 63 17 59 15 88 88 S 7 11 29.91 1013 10 16.0934 N/A
7:56 am 07:56 Cloudy 63 17 59 15 88 88 S 7 11 29.91 1013 10 16.0934 N/A
8:17 am 08:17 Partly Cloudy 64 18 59 15 83 83 S 7 11 29.91 1013 10 16.0934 N/A
8:36 am 08:36 Sunny 64 18 59 15 83 83 S 8 13 29.91 1013 10 16.0934 N/A
8:57 am 08:57 Partly Cloudy 64 18 61 16 88 88 S 9 15 29.91 1013 10 16.0934 N/A
9:17 am 09:17 Sunny 66 19 61 16 83 83 S 12 19 29.91 1013 10 16.0934 N/A
9:36 am 09:36 Sunny 66 19 61 16 83 83 S 13 20 29.91 1013 10 16.0934 N/A
9:57 am 09:57 Sunny 68 20 61 16 78 78 S 14 22 29.88 1012 10 16.0934 N/A
10:17 am 10:17 Sunny 70 21 63 17 78 78 S 14 22 29.85 1011 10 16.0934 N/A
10:36 am 10:36 Sunny 70 21 63 17 78 78 S 13 20 29.85 1011 10 16.0934 N/A
10:57 am 10:57 Sunny 72 22 63 17 73 73 S 15 24 29.85 1011 10 16.0934 N/A
11:17 am 11:17 Sunny 73 23 63 17 69 69 S 14 22 29.85 1011 10 16.0934 N/A
11:36 am 11:36 Sunny 75 24 63 17 65 65 S 14 22 29.85 1011 10 16.0934 N/A
11:57 am 11:57 Partly Cloudy 77 25 63 17 61 61 SSW 16 26 29.83 1010 10 16.0934 N/A
12:17 pm 12:17 Mostly Cloudy 75 24 63 17 65 65 SSW 18 30 29.83 1010 10 16.0934 N/A
12:36 pm 12:36 Mostly Cloudy 75 24 63 17 65 65 SSW 12 19 29.83 1010 10 16.0934 N/A
12:57 pm 12:57 Partly Cloudy 77 25 63 17 61 61 SW 22 35 29.83 1010 10 16.0934 N/A
1:17 pm 13:17 Mostly Cloudy 77 25 63 17 61 61 SW 18 30 29.8 1009 10 16.0934 N/A
1:36 pm 13:36 Cloudy 77 25 63 17 61 61 SW 20 31 29.8 1009 10 16.0934 N/A
1:57 pm 13:57 Mostly Cloudy 77 25 64 18 65 65 SSW 16 26 29.8 1009 10 16.0934 N/A
2:17 pm 14:17 Mostly Cloudy 79 26 64 18 61 61 SSW 18 30 29.77 1008 10 16.0934 N/A
2:36 pm 14:36 Partly Cloudy 79 26 64 18 61 61 SW 17 28 29.77 1008 10 16.0934 N/A
2:57 pm 14:57 Partly Cloudy 81 27 64 18 58 58 SSW 15 24 29.77 1008 10 16.0934 N/A
3:16 pm 15:16 Partly Cloudy 81 27 64 18 58 58 SSW 17 28 29.77 1008 10 16.0934 N/A
3:36 pm 15:36 Partly Cloudy 81 27 64 18 58 58 SSW 14 22 29.74 1007 10 16.0934 N/A
3:57 pm 15:57 Sunny 81 27 63 17 54 54 SSW 23 37 29.74 1007 10 16.0934 N/A
4:16 pm 16:16 Sunny 82 28 63 17 51 51 SSW 17 28 29.74 1007 10 16.0934 N/A
4:36 pm 16:36 Sunny 81 27 63 17 54 54 SSW 16 26 29.74 1007 10 16.0934 N/A
4:57 pm 16:57 Sunny 82 28 63 17 51 51 SSW 16 26 29.74 1007 10 16.0934 N/A
5:16 pm 17:16 Sunny 81 27 63 17 54 54 SSW 18 30 29.71 1006 10 16.0934 N/A
5:36 pm 17:36 Sunny 81 27 63 17 54 54 S 15 24 29.71 1006 10 16.0934 N/A
5:57 pm 17:57 Sunny 81 27 63 17 54 54 S 20 31 29.71 1006 10 16.0934 N/A
6:16 pm 18:16 Sunny 79 26 63 17 58 58 SSW 18 30 29.71 1006 10 16.0934 N/A
6:36 pm 18:36 Sunny 79 26 63 17 58 58 SSW 16 26 29.71 1006 10 16.0934 N/A
6:57 pm 18:57 Sunny 77 25 63 17 61 61 S 13 20 29.71 1006 10 16.0934 N/A
7:16 pm 19:16 Clear 75 24 63 17 65 65 S 10 17 29.71 1006 10 16.0934 N/A
7:36 pm 19:36 Clear 75 24 63 17 65 65 S 13 20 29.71 1006 10 16.0934 N/A
7:57 pm 19:57 Clear 75 24 63 17 65 65 S 12 19 29.71 1006 10 16.0934 N/A
8:16 pm 20:16 Clear 75 24 61 16 61 61 S 15 24 29.71 1006 10 16.0934 N/A
8:37 pm 20:37 Clear 73 23 61 16 65 65 S 13 20 29.74 1007 10 16.0934 N/A
8:56 pm 20:56 Clear 73 23 61 16 65 65 S 13 20 29.74 1007 10 16.0934 N/A
9:16 pm 21:16 Clear 73 23 61 16 65 65 S 10 17 29.71 1006 10 16.0934 N/A
9:37 pm 21:37 Clear 73 23 61 16 65 65 S 13 20 29.71 1006 10 16.0934 N/A
9:57 pm 21:57 Clear 72 22 61 16 69 69 S 13 20 29.71 1006 10 16.0934 N/A
10:16 pm 22:16 Clear 72 22 61 16 69 69 S 15 24 29.71 1006 10 16.0934 N/A
10:37 pm 22:37 Clear 72 22 61 16 69 69 S 17 28 29.71 1006 10 16.0934 N/A
10:56 pm 22:56 Clear 72 22 61 16 69 69 SSW 17 28 29.71 1006 10 16.0934 N/A
11:16 pm 23:16 Clear 72 22 61 16 69 69 SSW 13 20 29.71 1006 10 16.0934 N/A
11:37 pm 23:37 Clear 72 22 61 16 69 69 SSW 15 24 29.71 1006 10 16.0934 N/A
11:56 pm 23:56 Clear 70 21 61 16 73 73 SSW 14 22 29.71 1006 10 16.0934 N/A

Powered by AerisWeather